This is the latest recevied weather packets stored in our database for station/object KU9TRY. If no packets are shown the sender has not sent any weather packets the latest 10 day(s).
| Time | Temp. | Humidity | Pressure | Rain* | Wind** | Luminosity | Snow |
|---|---|---|---|---|---|---|---|
| 1777850045 | 15.56° C | 50% | 1016.5 hPa | 0 mm | - | 26 W/m² | - |
| 1777849741 | 16.11° C | 49% | 1016.5 hPa | 0 mm | - | 27 W/m² | - |
| 1777849438 | 16.11° C | 48% | 1016.7 hPa | 0 mm | - | 28 W/m² | - |
| 1777849136 | 16.67° C | 43% | 1016.6 hPa | 0 mm | - | 28 W/m² | - |
| 1777848832 | 16.11° C | 43% | 1016.7 hPa | 0 mm | - | 29 W/m² | - |
| 1777848528 | 16.11° C | 45% | 1016.8 hPa | 0 mm | - | 29 W/m² | - |
| 1777848225 | 16.67° C | 47% | 1016.8 hPa | 0 mm | - | 30 W/m² | - |
| 1777847923 | 16.67° C | 43% | 1016.8 hPa | 0 mm | - | 30 W/m² | - |
| 1777847621 | 17.22° C | 38% | 1016.9 hPa | 0 mm | - | 31 W/m² | - |
| 1777847316 | 16.67° C | 40% | 1016.9 hPa | 0 mm | - | 31 W/m² | - |
| 1777847015 | 16.67° C | 46% | 1016.9 hPa | 0 mm | - | 32 W/m² | - |
| 1777846712 | 16.67° C | 44% | 1017.2 hPa | 0 mm | - | 32 W/m² | - |
| 1777846411 | 17.22° C | 43% | 1017.1 hPa | 0 mm | - | 33 W/m² | - |
| 1777846106 | 17.78° C | 35% | 1017.2 hPa | 0 mm | - | 33 W/m² | - |
| 1777845804 | 17.22° C | 39% | 1017.4 hPa | 0 mm | - | 33 W/m² | - |
| 1777845500 | 17.78° C | 39% | 1017.5 hPa | 0 mm | - | 34 W/m² | - |
| 1777845198 | 17.78° C | 34% | 1017.5 hPa | 0 mm | - | 34 W/m² | - |
| 1777844895 | 18.33° C | 38% | 1017.7 hPa | 0 mm | - | 36 W/m² | - |
| 1777844592 | 18.33° C | 33% | 1017.8 hPa | 0 mm | - | 35 W/m² | - |
| 1777844290 | 17.78° C | 32% | 1017.9 hPa | 0 mm | - | 41 W/m² | - |
| 1777843987 | 18.33° C | 37% | 1017.9 hPa | 0 mm | - | 52 W/m² | - |
| 1777843684 | 18.33° C | 31% | 1017.9 hPa | 0 mm | - | 45 W/m² | - |
| 1777843382 | 18.33° C | 34% | 1018.2 hPa | 0 mm | - | 48 W/m² | - |
| 1777843079 | 18.33° C | 30% | 1018.1 hPa | 0 mm | - | 37 W/m² | - |
| 1777842775 | 18.33° C | 32% | 1018 hPa | 0 mm | - | 38 W/m² | - |
* Rain latest hour (hover to see other rain measurements)
** Current wind speed in m/s (hover to see current wind gust speed)